Погода в Вересаево

Россия / Республика Крым     45°18′15″N   33°30′00″E
темп.,
°C
ветер,
м/с
пор.,
м/с
влажн.,
%
обл.,
%
осадки,
мм/ч
давл.,
гПа
погр.,
м
6 марта, сб
сб600:00+7юз468587 0.0 1014149
03:00+7ююз458657 0.0 1014105
06:00+7ю598749 0.0 1012181
09:00+9зюз588366 0.0 1013343
12:00+10ссз7965100 0.0 1015699
15:00+4с91275100 0.0 1018624
18:00+4с81064100 0.0 10211094
21:00+2с6106276 0.0 1025873
7 марта, вс
вс700:000с59620 0.0 1027421
03:00−1с35610 0.0 1029191
06:00−2с11620 0.0 102977
09:000ююз22480 0.0 1029293
12:00+4зюз56360 0.0 10271597
15:00+4з784863 0.1 10261644
18:00+4з675187 0.0 10231395
21:00+2зюз585850 0.0 1023413
8 марта, пн
пн800:00+3юз610610 0.0 1021429
03:00+3зюз6106615 0.0 1020454
06:00+4юз7106996 0.1 1018537
09:00+5юз8106695 0.2 10181298
12:00+6юз81074100 0.4 10171079
15:00+7зюз81061100 1.1 10161547
18:00+6з676335 0.1 1015902
21:00+4з346758 0.1 1016166
9 марта, вт
вт900:00+3сз236592 0.0 1017120
03:00+2ссз337473 0.0 101772
06:00+1с468970 0.0 1018179
09:00+2ссв356883 0.0 1020522
12:00+4с244388 0.0 10211308
15:00+6сз443644 0.0 10211532
18:00+4ссз44400 0.0 10211097
21:00+2ссз34580 0.0 1023150
10 марта, ср
ср1000:00+1с356195 0.0 1023176
03:00−1св587097 0.0 1023223
06:00−1св587188 0.0 1022213
09:00+1всв576281 0.0 1022442
12:00+4св4447100 0.0 10221070
15:00+6ссв3338100 0.0 10201416
18:00+4св4453100 0.0 1020875
21:00+1всв5871100 0.0 1021374